QPF
0.00 0.00 0.00 0.00 0.00 0.00 0.00 0.00 0.01 0.01 0.00 0.00 0.00 0.01 0.01 0.01 0.01 0.01 0.04 0.03 0.01 0.00 0.00 0.00 0.00 0.00 0.01 0.01 0.00 0.00 0.00 0.00 0.01 0.01 0.00 0.00 0.00 0.00 0.00 0.00 0.00 0.00 0.01 0.01
0.00 0.00 0.00 0.00 0.00 0.00 0.00 0.00 0.01 0.02 0.00 0.00 0.00 0.00 0.01 0.01 0.02 0.02 0.01 0.01 0.00 0.00 0.01 0.00 0.00 0.00 0.01 0.02 0.01 0.01 0.00 0.00 0.01 0.01 0.01 0.00 0.00 0.00 0.00 0.00 0.00 0.01 0.01 0.01
0.00 0.00 0.00 0.00 0.00 0.00 0.00 0.00 0.00 0.01 0.01 0.00 0.01 0.01 0.01 0.01 0.02 0.02 0.02 0.01 0.00 0.00 0.01 0.01 0.01 0.01 0.01 0.01 0.01 0.01 0.01 0.01 0.01 0.01 0.01 0.00 0.00 0.00 0.00 0.00 0.00 0.01 0.01 0.01
0.00 0.00 0.00 0.00 0.00 0.00 0.00 0.00 0.00 0.00 0.01 0.00 0.01 0.01 0.02 0.02 0.02 0.02 0.02 0.01 0.01 0.01 0.01 0.01 0.01 0.01 0.01 0.01 0.01 0.01 0.02 0.01 0.01 0.00 0.00 0.00 0.00 0.00 0.00 0.00 0.00 0.00 0.01 0.01
0.00 0.00 0.00 0.00 0.00 0.01 0.00 0.00 0.00 0.00 0.00 0.00 0.00 0.01 0.02 0.02 0.03 0.05 0.06 0.05 0.03 0.01 0.01 0.01 0.02 0.01 0.01 0.01 0.01 0.01 0.01 0.02 0.02 0.01 0.01 0.00 0.00 0.00 0.00 0.00 0.00 0.00 0.00 0.01
0.00 0.00 0.00 0.00 0.00 0.00 0.00 0.00 0.00 0.00 0.00 0.00 0.00 0.01 0.01 0.02 0.02 0.02 0.03 0.03 0.02 0.02 0.01 0.01 0.01 0.01 0.02 0.02 0.01 0.01 0.01 0.01 0.01 0.02 0.01 0.00 0.00 0.00 0.00 0.00 0.00 0.00 0.00 0.00
0.00 0.00 0.00 0.00 0.00 0.00 0.00 0.01 0.01 0.01 0.01 0.01 0.01 0.01 0.01 0.01 0.01 0.01 0.02 0.02 0.01 0.02 0.02 0.01 0.01 0.02 0.02 0.01 0.01 0.01 0.01 0.01 0.01 0.01 0.01 0.00 0.01 0.00 0.00 0.00 0.00 0.00 0.00 0.00
0.00 0.00 0.00 0.00 0.00 0.00 0.00 0.01 0.01 0.02 0.01 0.01 0.01 0.01 0.01 0.01 0.01 0.01 0.01 0.01 0.01 0.01 0.02 0.02 0.02 0.02 0.02 0.02 0.01 0.02 0.02 0.02 0.01 0.01 0.01 0.00 0.01 0.00 0.01 0.01 0.00 0.00 0.00 0.00
0.00 0.00 0.00 0.00 0.00 0.00 0.00 0.01 0.01 0.02 0.01 0.01 0.01 0.01 0.01 0.01 0.01 0.01 0.01 0.01 0.01 0.01 0.01 0.02 0.02 0.02 0.01 0.01 0.01 0.01 0.01 0.01 0.01 0.01 0.01 0.01 0.01 0.01 0.01 0.02 0.01 0.00 0.00 0.00
0.00 0.00 0.00 0.00 0.00 0.00 0.00 0.00 0.01 0.02 0.03 0.02 0.02 0.02 0.03 0.03 0.02 0.02 0.02 0.01 0.01 0.01 0.01 0.01 0.02 0.02 0.01 0.01 0.01 0.01 0.01 0.01 0.01 0.01 0.01 0.01 0.01 0.01 0.02 0.02 0.02 0.01 0.01 0.01
0.00 0.01 0.01 0.00 0.00 0.00 0.00 0.00 0.01 0.01 0.02 0.03 0.04 0.03 0.03 0.03 0.02 0.02 0.02 0.01 0.01 0.01 0.01 0.01 0.01 0.02 0.02 0.02 0.01 0.01 0.01 0.01 0.01 0.01 0.01 0.01 0.01 0.02 0.02 0.02 0.02 0.02 0.02 0.02
0.01 0.01 0.01 0.00 0.00 0.00 0.00 0.00 0.01 0.01 0.01 0.02 0.02 0.02 0.02 0.02 0.02 0.01 0.01 0.01 0.01 0.01 0.01 0.01 0.01 0.01 0.01 0.01 0.01 0.01 0.01 0.01 0.02 0.02 0.02 0.02 0.03 0.04 0.04 0.04 0.03 0.03 0.04 0.04
0.01 0.01 0.01 0.01 0.00 0.00 0.00 0.01 0.01 0.02 0.02 0.01 0.01 0.01 0.01 0.01 0.01 0.01 0.01 0.01 0.01 0.01 0.01 0.01 0.00 0.01 0.01 0.01 0.01 0.01 0.01 0.01 0.01 0.01 0.02 0.03 0.03 0.03 0.04 0.05 0.05 0.05 0.04 0.03
0.01 0.01 0.01 0.01 0.01 0.01 0.01 0.01 0.02 0.02 0.03 0.02 0.01 0.00 0.00 0.00 0.01 0.01 0.01 0.01 0.01 0.01 0.01 0.01 0.00 0.00 0.00 0.00 0.00 0.00 0.00 0.01 0.01 0.02 0.02 0.02 0.01 0.02 0.03 0.04 0.05 0.04 0.03 0.03
0.01 0.01 0.01 0.01 0.01 0.01 0.01 0.01 0.01 0.01 0.02 0.02 0.01 0.01 0.00 0.00 0.00 0.00 0.00 0.01 0.01 0.00 0.00 0.00 0.00 0.00 0.00 0.00 0.00 0.01 0.00 0.01 0.01 0.02 0.02 0.01 0.01 0.01 0.03 0.03 0.04 0.04 0.04 0.04
0.01 0.01 0.01 0.01 0.00 0.00 0.00 0.00 0.00 0.01 0.01 0.01 0.01 0.01 0.00 0.00 0.00 0.00 0.01 0.00 0.00 0.00 0.00 0.00 0.01 0.01 0.00 0.00 0.01 0.01 0.01 0.01 0.01 0.01 0.01 0.02 0.02 0.02 0.02 0.03 0.03 0.03 0.04 0.05
0.01 0.01 0.01 0.01 0.00 0.00 0.00 0.00 0.00 0.01 0.01 0.01 0.01 0.00 0.00 0.01 0.01 0.01 0.01 0.00 0.00 0.00 0.00 0.00 0.00 0.01 0.01 0.01 0.01 0.01 0.01 0.01 0.00 0.01 0.01 0.01 0.01 0.01 0.01 0.02 0.02 0.02 0.03 0.04
0.01 0.01 0.01 0.01 0.01 0.01 0.00 0.00 0.01 0.01 0.01 0.01 0.01 0.00 0.01 0.01 0.01 0.01 0.01 0.00 0.00 0.00 0.00 0.00 0.00 0.00 0.00 0.01 0.01 0.01 0.01 0.01 0.00 0.01 0.01 0.01 0.01 0.01 0.01 0.01 0.02 0.02 0.02 0.03
0.00 0.01 0.01 0.02 0.02 0.02 0.01 0.02 0.02 0.02 0.01 0.01 0.01 0.01 0.00 0.00 0.01 0.01 0.01 0.00 0.00 0.00 0.00 0.00 0.00 0.00 0.00 0.00 0.01 0.01 0.01 0.01 0.01 0.01 0.00 0.00 0.01 0.02 0.02 0.01 0.01 0.02 0.02 0.03
0.00 0.01 0.02 0.03 0.03 0.02 0.02 0.02 0.01 0.01 0.02 0.01 0.01 0.01 0.01 0.00 0.01 0.01 0.01 0.00 0.00 0.00 0.00 0.00 0.00 0.00 0.00 0.00 0.00 0.01 0.01 0.01 0.01 0.01 0.01 0.01 0.02 0.02 0.02 0.02 0.01 0.01 0.02 0.04
0.00 0.01 0.01 0.01 0.01 0.01 0.01 0.00 0.01 0.02 0.02 0.01 0.01 0.01 0.01 0.01 0.01 0.01 0.01 0.01 0.00 0.00 0.00 0.00 0.00 0.00 0.00 0.00 0.00 0.00 0.01 0.01 0.01 0.01 0.01 0.01 0.01 0.02 0.02 0.02 0.02 0.02 0.02 0.02
0.00 0.01 0.01 0.01 0.01 0.01 0.01 0.00 0.01 0.01 0.01 0.01 0.02 0.02 0.01 0.01 0.01 0.01 0.01 0.00 0.00 0.00 0.00 0.00 0.00 0.01 0.01 0.01 0.01 0.01 0.01 0.01 0.01 0.01 0.01 0.01 0.01 0.01 0.01 0.02 0.02 0.02 0.02 0.02
0.01 0.01 0.01 0.01 0.01 0.01 0.00 0.01 0.01 0.01 0.01 0.01 0.01 0.01 0.01 0.01 0.00 0.00 0.00 0.00 0.00 0.00 0.00 0.01 0.01 0.01 0.01 0.01 0.01 0.01 0.01 0.02 0.02 0.02 0.02 0.02 0.01 0.00 0.01 0.01 0.01 0.02 0.02 0.02
0.00 0.01 0.01 0.01 0.00 0.00 0.00 0.00 0.00 0.01 0.00 0.00 0.00 0.00 0.01 0.00 0.00 0.00 0.00 0.00 0.00 0.01 0.01 0.01 0.01 0.01 0.01 0.01 0.01 0.01 0.01 0.01 0.02 0.01 0.01 0.02 0.01 0.01 0.01 0.01 0.01 0.01 0.01 0.01
0.00 0.01 0.01 0.01 0.00 0.00 0.00 0.00 0.00 0.00 0.00 0.00 0.00 0.00 0.00 0.00 0.00 0.00 0.00 0.00 0.00 0.01 0.01 0.01 0.01 0.00 0.00 0.00 0.01 0.01 0.01 0.01 0.01 0.01 0.01 0.01 0.01 0.01 0.01 0.01 0.01 0.01 0.01 0.02
0.00 0.00 0.00 0.01 0.00 0.00 0.00 0.00 0.00 0.00 0.00 0.00 0.00 0.00 0.00 0.00 0.00 0.00 0.00 0.00 0.01 0.01 0.01 0.01 0.01 0.01 0.00 0.00 0.01 0.01 0.01 0.01 0.01 0.01 0.01 0.01 0.01 0.01 0.01 0.01 0.01 0.01 0.01 0.01
MSLP
1015.07 1015.87 1016.55 1017.13 1017.64 1018.10 1018.53 1018.94 1019.29 1019.57 1019.72 1019.73 1019.57 1019.28 1018.88 1018.45 1018.05 1017.73 1017.53 1017.45 1017.47 1017.54 1017.62 1017.66 1017.63 1017.53 1017.36 1017.15 1016.96 1016.80 1016.71 1016.69 1016.72 1016.78 1016.84 1016.87 1016.87 1016.82 1016.75 1016.67 1016.61 1016.58 1016.60 1016.65
1015.77 1016.38 1016.86 1017.25 1017.61 1017.97 1018.37 1018.81 1019.26 1019.65 1019.93 1020.04 1019.95 1019.69 1019.28 1018.81 1018.35 1017.98 1017.74 1017.65 1017.68 1017.79 1017.90 1017.97 1017.94 1017.82 1017.61 1017.34 1017.08 1016.86 1016.73 1016.69 1016.74 1016.84 1016.95 1017.04 1017.09 1017.07 1017.02 1016.94 1016.87 1016.84 1016.86 1016.92
1016.23 1016.64 1016.92 1017.13 1017.35 1017.65 1018.06 1018.57 1019.13 1019.67 1020.08 1020.30 1020.29 1020.05 1019.63 1019.10 1018.58 1018.14 1017.85 1017.73 1017.76 1017.89 1018.04 1018.14 1018.14 1018.02 1017.78 1017.49 1017.18 1016.93 1016.77 1016.73 1016.79 1016.92 1017.08 1017.22 1017.31 1017.33 1017.29 1017.22 1017.14 1017.10 1017.12 1017.20
1016.44 1016.67 1016.77 1016.85 1016.99 1017.27 1017.73 1018.34 1019.04 1019.72 1020.26 1020.58 1020.62 1020.39 1019.92 1019.32 1018.70 1018.17 1017.81 1017.65 1017.67 1017.81 1017.99 1018.14 1018.17 1018.08 1017.87 1017.57 1017.26 1016.99 1016.83 1016.79 1016.87 1017.03 1017.23 1017.41 1017.54 1017.59 1017.57 1017.50 1017.43 1017.38 1017.40 1017.48
1016.47 1016.54 1016.52 1016.52 1016.64 1016.96 1017.50 1018.23 1019.07 1019.88 1020.53 1020.91 1020.96 1020.69 1020.14 1019.43 1018.70 1018.06 1017.61 1017.38 1017.38 1017.53 1017.75 1017.95 1018.05 1018.02 1017.85 1017.59 1017.31 1017.06 1016.91 1016.89 1016.99 1017.18 1017.41 1017.63 1017.79 1017.86 1017.86 1017.80 1017.73 1017.68 1017.70 1017.78
1016.37 1016.35 1016.27 1016.25 1016.41 1016.80 1017.45 1018.31 1019.26 1020.16 1020.87 1021.27 1021.29 1020.93 1020.27 1019.43 1018.56 1017.80 1017.25 1016.96 1016.93 1017.09 1017.35 1017.62 1017.80 1017.85 1017.76 1017.57 1017.34 1017.14 1017.02 1017.03 1017.15 1017.37 1017.63 1017.87 1018.06 1018.15 1018.17 1018.12 1018.05 1018.01 1018.02 1018.10
1016.22 1016.15 1016.07 1016.10 1016.34 1016.84 1017.60 1018.56 1019.59 1020.53 1021.24 1021.59 1021.53 1021.06 1020.27 1019.29 1018.29 1017.41 1016.77 1016.43 1016.38 1016.56 1016.88 1017.21 1017.49 1017.63 1017.64 1017.54 1017.39 1017.24 1017.17 1017.21 1017.36 1017.59 1017.87 1018.13 1018.33 1018.45 1018.48 1018.45 1018.39 1018.35 1018.36 1018.44
1016.03 1015.97 1015.94 1016.06 1016.40 1017.01 1017.86 1018.89 1019.94 1020.87 1021.52 1021.79 1021.61 1021.02 1020.10 1019.00 1017.89 1016.94 1016.24 1015.87 1015.82 1016.03 1016.40 1016.82 1017.18 1017.43 1017.55 1017.54 1017.47 1017.39 1017.37 1017.44 1017.61 1017.85 1018.14 1018.41 1018.62 1018.76 1018.80 1018.79 1018.74 1018.71 1018.72 1018.80
1015.77 1015.77 1015.83 1016.06 1016.52 1017.22 1018.13 1019.17 1020.20 1021.05 1021.60 1021.75 1021.45 1020.74 1019.73 1018.56 1017.41 1016.42 1015.72 1015.36 1015.34 1015.60 1016.02 1016.51 1016.96 1017.31 1017.51 1017.60 1017.61 1017.59 1017.62 1017.72 1017.90 1018.14 1018.43 1018.70 1018.91 1019.06 1019.12 1019.13 1019.10 1019.08 1019.10 1019.17
1015.41 1015.49 1015.68 1016.02 1016.58 1017.35 1018.28 1019.28 1020.22 1020.96 1021.38 1021.40 1021.00 1020.22 1019.17 1017.99 1016.86 1015.92 1015.27 1014.97 1015.01 1015.31 1015.80 1016.35 1016.86 1017.28 1017.56 1017.72 1017.80 1017.84 1017.90 1018.03 1018.22 1018.46 1018.73 1018.99 1019.21 1019.36 1019.44 1019.46 1019.46 1019.46 1019.49 1019.56
1014.90 1015.11 1015.41 1015.87 1016.50 1017.29 1018.19 1019.10 1019.92 1020.52 1020.80 1020.70 1020.23 1019.43 1018.42 1017.32 1016.30 1015.47 1014.94 1014.74 1014.85 1015.22 1015.75 1016.34 1016.89 1017.34 1017.68 1017.89 1018.02 1018.12 1018.22 1018.36 1018.56 1018.80 1019.06 1019.31 1019.51 1019.66 1019.75 1019.79 1019.81 1019.83 1019.88 1019.96
1014.28 1014.61 1015.03 1015.57 1016.24 1017.01 1017.83 1018.62 1019.28 1019.72 1019.87 1019.70 1019.20 1018.45 1017.54 1016.60 1015.75 1015.10 1014.73 1014.65 1014.86 1015.27 1015.83 1016.43 1016.99 1017.46 1017.82 1018.07 1018.25 1018.39 1018.53 1018.70 1018.91 1019.15 1019.40 1019.63 1019.83 1019.97 1020.07 1020.12 1020.16 1020.20 1020.26 1020.36
1013.62 1014.07 1014.58 1015.17 1015.83 1016.54 1017.24 1017.87 1018.36 1018.65 1018.68 1018.46 1017.99 1017.33 1016.59 1015.85 1015.22 1014.79 1014.60 1014.66 1014.94 1015.40 1015.96 1016.54 1017.09 1017.55 1017.92 1018.20 1018.42 1018.61 1018.80 1019.01 1019.25 1019.50 1019.74 1019.97 1020.16 1020.30 1020.39 1020.46 1020.51 1020.57 1020.65 1020.75
1013.03 1013.57 1014.15 1014.75 1015.37 1015.96 1016.51 1016.96 1017.27 1017.40 1017.34 1017.08 1016.67 1016.15 1015.60 1015.09 1014.71 1014.50 1014.49 1014.67 1015.03 1015.51 1016.05 1016.59 1017.10 1017.54 1017.91 1018.22 1018.49 1018.75 1019.00 1019.27 1019.55 1019.83 1020.09 1020.32 1020.50 1020.63 1020.73 1020.80 1020.86 1020.93 1021.02 1021.14
1012.63 1013.25 1013.85 1014.41 1014.93 1015.38 1015.74 1015.99 1016.11 1016.09 1015.94 1015.68 1015.33 1014.96 1014.60 1014.33 1014.17 1014.17 1014.31 1014.60 1015.01 1015.48 1015.99 1016.48 1016.95 1017.37 1017.75 1018.10 1018.44 1018.77 1019.11 1019.46 1019.80 1020.13 1020.41 1020.65 1020.84 1020.97 1021.06 1021.14 1021.20 1021.28 1021.38 1021.51
1012.52 1013.16 1013.74 1014.22 1014.60 1014.88 1015.03 1015.06 1014.99 1014.82 1014.59 1014.31 1014.03 1013.79 1013.61 1013.54 1013.58 1013.74 1014.01 1014.38 1014.80 1015.26 1015.72 1016.17 1016.60 1017.01 1017.42 1017.82 1018.24 1018.67 1019.11 1019.56 1019.98 1020.37 1020.69 1020.96 1021.15 1021.29 1021.38 1021.46 1021.53 1021.61 1021.72 1021.84
1012.70 1013.32 1013.82 1014.18 1014.40 1014.46 1014.39 1014.21 1013.95 1013.64 1013.32 1013.03 1012.80 1012.65 1012.62 1012.70 1012.90 1013.18 1013.54 1013.95 1014.38 1014.81 1015.24 1015.65 1016.07 1016.49 1016.93 1017.41 1017.92 1018.46 1019.02 1019.56 1020.08 1020.53 1020.91 1021.20 1021.42 1021.56 1021.66 1021.74 1021.81 1021.90 1022.00 1022.12
1013.08 1013.64 1014.02 1014.22 1014.24 1014.10 1013.81 1013.42 1012.98 1012.54 1012.14 1011.83 1011.63 1011.56 1011.63 1011.82 1012.12 1012.48 1012.90 1013.33 1013.76 1014.17 1014.58 1014.98 1015.40 1015.85 1016.36 1016.92 1017.53 1018.18 1018.84 1019.49 1020.09 1020.61 1021.03 1021.36 1021.59 1021.76 1021.87 1021.95 1022.03 1022.12 1022.23 1022.34
1013.48 1013.93 1014.17 1014.20 1014.03 1013.68 1013.20 1012.63 1012.05 1011.50 1011.05 1010.71 1010.53 1010.51 1010.64 1010.91 1011.27 1011.69 1012.14 1012.58 1013.02 1013.43 1013.84 1014.25 1014.70 1015.21 1015.78 1016.42 1017.13 1017.87 1018.62 1019.35 1020.01 1020.58 1021.05 1021.41 1021.67 1021.84 1021.97 1022.07 1022.16 1022.26 1022.37 1022.48
1013.68 1014.00 1014.09 1013.96 1013.61 1013.09 1012.46 1011.77 1011.10 1010.49 1010.00 1009.66 1009.50 1009.52 1009.70 1010.01 1010.41 1010.86 1011.33 1011.80 1012.25 1012.68 1013.12 1013.57 1014.07 1014.63 1015.27 1015.99 1016.77 1017.58 1018.39 1019.16 1019.86 1020.46 1020.95 1021.33 1021.61 1021.81 1021.96 1022.08 1022.20 1022.31 1022.42 1022.54
1013.51 1013.70 1013.64 1013.36 1012.89 1012.26 1011.54 1010.79 1010.08 1009.46 1008.98 1008.68 1008.55 1008.61 1008.82 1009.16 1009.60 1010.08 1010.58 1011.07 1011.55 1012.02 1012.50 1013.01 1013.57 1014.19 1014.89 1015.66 1016.48 1017.32 1018.15 1018.93 1019.64 1020.24 1020.74 1021.13 1021.43 1021.66 1021.84 1021.99 1022.13 1022.27 1022.40 1022.53
1012.86 1012.93 1012.76 1012.38 1011.83 1011.16 1010.42 1009.69 1009.01 1008.44 1008.02 1007.78 1007.71 1007.81 1008.06 1008.44 1008.90 1009.40 1009.93 1010.46 1010.98 1011.50 1012.04 1012.61 1013.22 1013.90 1014.63 1015.42 1016.25 1017.09 1017.90 1018.66 1019.34 1019.93 1020.42 1020.82 1021.13 1021.39 1021.61 1021.80 1021.99 1022.16 1022.32 1022.47
1011.75 1011.72 1011.47 1011.04 1010.48 1009.84 1009.16 1008.51 1007.93 1007.47 1007.15 1006.99 1007.00 1007.16 1007.46 1007.86 1008.34 1008.87 1009.43 1009.99 1010.56 1011.13 1011.72 1012.34 1013.01 1013.71 1014.46 1015.25 1016.05 1016.85 1017.61 1018.32 1018.96 1019.52 1019.99 1020.39 1020.74 1021.03 1021.30 1021.54 1021.78 1022.00 1022.20 1022.38
1010.31 1010.19 1009.91 1009.49 1008.97 1008.41 1007.85 1007.34 1006.91 1006.59 1006.40 1006.36 1006.46 1006.68 1007.02 1007.45 1007.94 1008.49 1009.06 1009.64 1010.25 1010.86 1011.49 1012.15 1012.84 1013.56 1014.30 1015.06 1015.81 1016.55 1017.25 1017.90 1018.48 1019.01 1019.47 1019.88 1020.25 1020.60 1020.92 1021.23 1021.53 1021.81 1022.06 1022.29
1008.70 1008.54 1008.26 1007.88 1007.45 1007.02 1006.61 1006.27 1006.01 1005.86 1005.82 1005.90 1006.08 1006.36 1006.73 1007.17 1007.67 1008.21 1008.78 1009.37 1009.99 1010.63 1011.28 1011.95 1012.65 1013.35 1014.07 1014.78 1015.47 1016.14 1016.77 1017.36 1017.90 1018.40 1018.86 1019.30 1019.71 1020.11 1020.51 1020.89 1021.26 1021.61 1021.92 1022.20
1007.15 1006.97 1006.71 1006.40 1006.09 1005.80 1005.56 1005.39 1005.31 1005.32 1005.41 1005.59 1005.85 1006.17 1006.55 1006.99 1007.47 1007.99 1008.54 1009.12 1009.73 1010.35 1011.00 1011.67 1012.34 1013.02 1013.69 1014.35 1014.98 1015.59 1016.16 1016.71 1017.22 1017.71 1018.19 1018.66 1019.14 1019.61 1020.07 1020.54 1020.98 1021.40 1021.79 1022.12
Thickness
5739 5723 5713 5719 5724 5723 5720 5714 5711 5720 5735 5728 5721 5722 5732 5740 5738 5736 5735 5736 5736 5739 5743 5745 5745 5744 5742 5739 5737 5735 5732 5729 5727 5723 5719 5715 5713 5712 5712 5711 5711 5709 5708 5706
5716 5713 5727 5733 5732 5726 5718 5710 5710 5720 5733 5726 5718 5719 5730 5735 5735 5736 5735 5735 5736 5736 5738 5739 5740 5740 5739 5736 5734 5732 5730 5728 5725 5722 5719 5716 5712 5709 5708 5708 5707 5705 5704 5703
5710 5721 5734 5730 5724 5718 5715 5710 5711 5712 5722 5723 5714 5708 5717 5728 5735 5736 5737 5737 5738 5737 5736 5736 5736 5736 5735 5733 5732 5732 5729 5727 5724 5721 5716 5712 5707 5705 5703 5702 5701 5701 5700 5699
5714 5727 5728 5722 5718 5717 5706 5721 5719 5715 5703 5695 5704 5683 5706 5717 5723 5727 5730 5731 5733 5736 5737 5736 5735 5733 5733 5732 5732 5730 5727 5724 5722 5718 5714 5708 5703 5699 5699 5699 5698 5698 5697 5695
5710 5722 5720 5715 5720 5721 5715 5725 5719 5713 5702 5692 5696 5683 5693 5710 5710 5717 5724 5728 5731 5733 5735 5734 5734 5734 5733 5732 5730 5727 5724 5721 5719 5716 5712 5707 5702 5699 5697 5696 5694 5693 5692 5692
5714 5726 5725 5722 5729 5728 5725 5716 5709 5697 5686 5675 5689 5681 5683 5697 5707 5713 5719 5724 5728 5730 5731 5731 5732 5731 5729 5728 5726 5724 5720 5717 5715 5712 5708 5704 5700 5696 5693 5691 5689 5688 5687 5687
5700 5712 5723 5727 5716 5718 5711 5688 5669 5666 5660 5667 5687 5681 5684 5705 5715 5715 5716 5719 5723 5725 5725 5724 5723 5722 5722 5722 5721 5719 5715 5711 5709 5707 5704 5702 5699 5695 5692 5689 5687 5685 5682 5681
5679 5684 5709 5717 5711 5702 5701 5688 5664 5654 5653 5664 5679 5674 5688 5709 5716 5717 5716 5716 5717 5717 5718 5719 5719 5718 5717 5716 5716 5713 5711 5707 5705 5702 5700 5698 5696 5693 5690 5688 5685 5683 5681 5679
5676 5681 5708 5716 5718 5708 5694 5685 5686 5667 5664 5658 5664 5677 5692 5705 5706 5708 5709 5708 5708 5710 5711 5712 5713 5713 5712 5710 5709 5708 5706 5703 5701 5698 5696 5693 5691 5689 5686 5684 5682 5680 5678 5676
5687 5677 5693 5707 5711 5708 5702 5690 5672 5663 5651 5646 5657 5664 5669 5686 5693 5699 5699 5699 5701 5703 5704 5705 5705 5705 5704 5704 5703 5702 5701 5698 5695 5693 5691 5690 5687 5685 5682 5679 5677 5675 5674 5672
5686 5671 5677 5687 5687 5685 5687 5682 5671 5657 5654 5644 5641 5655 5686 5686 5691 5692 5693 5695 5696 5696 5697 5697 5697 5698 5697 5696 5696 5695 5693 5691 5689 5687 5686 5684 5682 5680 5677 5674 5673 5671 5668 5666
5676 5663 5658 5671 5687 5694 5687 5680 5667 5651 5647 5646 5640 5652 5690 5689 5690 5689 5688 5690 5691 5691 5691 5691 5691 5690 5689 5688 5687 5686 5685 5684 5683 5681 5679 5677 5675 5673 5670 5668 5667 5665 5663 5661
5670 5654 5643 5651 5662 5674 5675 5676 5671 5658 5646 5639 5634 5649 5682 5681 5681 5682 5682 5682 5683 5683 5682 5682 5682 5681 5680 5680 5679 5678 5677 5677 5676 5674 5671 5670 5668 5665 5663 5662 5661 5659 5657 5655
5670 5649 5640 5638 5646 5657 5660 5666 5669 5655 5638 5636 5641 5649 5664 5668 5669 5671 5673 5674 5675 5674 5673 5673 5672 5672 5672 5672 5671 5670 5670 5669 5668 5666 5664 5661 5660 5658 5657 5656 5655 5653 5651 5649
5658 5644 5647 5650 5656 5657 5657 5660 5661 5655 5648 5639 5644 5647 5654 5660 5662 5664 5665 5665 5665 5665 5664 5664 5663 5663 5664 5664 5664 5663 5662 5662 5661 5658 5657 5655 5654 5652 5650 5649 5647 5646 5645 5644
5645 5640 5642 5643 5652 5652 5651 5655 5656 5654 5652 5646 5644 5644 5655 5657 5656 5655 5655 5656 5655 5656 5657 5657 5657 5657 5657 5657 5657 5656 5655 5655 5653 5651 5649 5648 5647 5644 5642 5641 5640 5639 5638 5637
5634 5632 5628 5625 5637 5640 5635 5647 5649 5646 5646 5644 5636 5640 5647 5645 5646 5646 5646 5647 5647 5649 5650 5650 5649 5649 5650 5650 5650 5649 5648 5647 5645 5644 5642 5641 5639 5637 5635 5634 5632 5630 5630 5629
5629 5624 5615 5615 5622 5617 5633 5648 5648 5642 5639 5640 5639 5640 5641 5641 5642 5643 5642 5641 5640 5642 5643 5643 5643 5643 5644 5644 5642 5641 5639 5638 5636 5635 5634 5633 5631 5630 5628 5626 5624 5622 5622 5621
5633 5624 5611 5605 5606 5614 5631 5640 5640 5633 5628 5634 5633 5633 5634 5636 5634 5632 5636 5637 5636 5637 5637 5637 5637 5637 5636 5636 5635 5632 5630 5629 5628 5626 5626 5626 5625 5623 5621 5618 5617 5615 5614 5613
5625 5620 5608 5600 5601 5602 5622 5637 5640 5631 5616 5628 5627 5626 5626 5624 5612 5616 5627 5628 5629 5629 5629 5628 5628 5627 5627 5627 5626 5623 5621 5620 5619 5619 5619 5618 5617 5615 5613 5612 5610 5608 5607 5605
5610 5605 5600 5596 5595 5604 5623 5632 5631 5609 5610 5622 5621 5619 5617 5613 5611 5615 5619 5619 5619 5619 5618 5619 5618 5617 5617 5618 5617 5614 5612 5612 5613 5613 5612 5610 5609 5608 5606 5605 5602 5600 5598 5596
5602 5596 5593 5590 5588 5597 5622 5620 5613 5611 5616 5616 5614 5613 5611 5608 5609 5609 5609 5608 5608 5607 5607 5608 5606 5606 5607 5608 5607 5604 5603 5605 5605 5604 5603 5602 5601 5600 5599 5596 5593 5591 5589 5587
5599 5601 5597 5596 5598 5610 5616 5616 5616 5614 5610 5609 5607 5606 5604 5601 5600 5600 5599 5598 5598 5598 5597 5597 5596 5595 5596 5597 5597 5595 5595 5596 5595 5594 5594 5593 5592 5591 5590 5588 5585 5583 5581 5579
5597 5601 5595 5593 5600 5606 5609 5611 5610 5609 5606 5604 5602 5600 5598 5593 5592 5590 5589 5588 5588 5588 5588 5587 5586 5585 5585 5586 5587 5587 5587 5586 5585 5584 5583 5583 5582 5581 5581 5580 5578 5575 5573 5571
5593 5592 5587 5586 5594 5598 5601 5602 5603 5601 5600 5598 5596 5594 5591 5588 5585 5583 5581 5580 5580 5580 5579 5578 5577 5576 5576 5577 5577 5578 5578 5577 5575 5574 5574 5573 5573 5572 5570 5570 5568 5567 5566 5565
5588 5587 5582 5582 5591 5588 5592 5597 5597 5594 5592 5591 5588 5586 5584 5582 5579 5577 5574 5573 5572 5572 5571 5570 5569 5568 5568 5568 5568 5569 5569 5568 5567 5565 5564 5563 5562 5561 5561 5559 5557 5557 5557 5557